,,Stat6,,Stat2,,Stat8,,Stat9,,Stat10,,Wind1,,Wind1,
time,status,PA1M_AVG,status,PR1M_SUM,status,RH1M_AVG,status,SR1M_AVG,status,TA1M_AVG,status,W1dAve1m,status,W1sAve1m,
2008-02-08, 00:00:00,VALID,917.03,VALID,0,VALID,100,VALID,-0.0169808,VALID,20.2631,VALID,162,VALID,0.586664,
2008-02-08, 00:01:00,VALID,917.021,VALID,0,VALID,100,VALID,-0.0169808,VALID,20.2477,VALID,161,VALID,0.573171,
2008-02-08, 00:02:00,VALID,917.006,VALID,0,VALID,100,VALID,0,VALID,20.2082,VALID,161,VALID,0.73266,
2008-02-08, 00:03:00,VALID,916.989,VALID,0,VALID,100,VALID,-0.0169808,VALID,20.199,VALID,160,VALID,0.529615,
2008-02-08, 00:04:00,VALID,916.992,VALID,0,VALID,100,VALID,-0.0339617,VALID,20.1828,VALID,160,VALID,0.308949,
2008-02-08, 00:05:00,VALID,916.998,VALID,0,VALID,100,VALID,-0.0339617,VALID,20.1728,VALID,160,VALID,0.263393,
2008-02-08, 00:06:00,VALID,916.98,VALID,0,VALID,100,VALID,-0.0169808,VALID,20.173,VALID,159,VALID,0.520117,
2008-02-08, 00:07:00,VALID,916.976,VALID,0,VALID,100,VALID,-0.0169808,VALID,20.1625,VALID,157,VALID,0.315044,
2008-02-08, 00:08:00,VALID,916.959,VALID,0,VALID,100,VALID,-0.0169808,VALID,20.1666,VALID,157,VALID,0.00109012,
2008-02-08, 00:09:00,VALID,916.954,VALID,0,VALID,100,VALID,-0.0169808,VALID,20.1593,VALID,157,VALID,0,
2008-02-08, 00:10:00,VALID,916.932,VALID,0,VALID,100,VALID,0,VALID,20.1758,VALID,157,VALID,0,
2008-02-08, 00:11:00,VALID,916.92,VALID,0,VALID,100,VALID,-0.0169808,VALID,20.1695,VALID,157,VALID,0,
2008-02-08, 00:12:00,VALID,916.893,VALID,0,VALID,100,VALID,-0.0169808,VALID,20.1436,VALID,157,VALID,0,
2008-02-08, 00:13:00,VALID,916.884,VALID,0,VALID,100,VALID,-0.0169808,VALID,20.1109,VALID,157,VALID,0,
2008-02-08, 00:14:00,VALID,916.871,VALID,0,VALID,100,VALID,0,VALID,20.0847,VALID,156,VALID,0,
2008-02-08, 00:15:00,VALID,916.851,VALID,0,VALID,100,VALID,-0.0339617,VALID,20.0655,VALID,154,VALID,0,
2008-02-08, 00:16:00,VALID,916.849,VALID,0,VALID,100,VALID,0,VALID,20.0425,VALID,153,VALID,0,
2008-02-08, 00:17:00,VALID,916.833,VALID,0,VALID,100,VALID,0,VALID,20.0333,VALID,153,VALID,0,
2008-02-08, 00:18:00,VALID,916.837,VALID,0,VALID,100,VALID,-0.0169808,VALID,20.0065,VALID,153,VALID,0,
2008-02-08, 00:19:00,VALID,916.831,VALID,0,VALID,100,VALID,0,VALID,19.9881,VALID,153,VALID,0,
2008-02-08, 00:20:00,VALID,916.831,VALID,0,VALID,100,VALID,-0.0169808,VALID,19.9551,VALID,152,VALID,0,
2008-02-08, 00:21:00,VALID,916.831,VALID,0,VALID,100,VALID,-0.0169808,VALID,19.9419,VALID,152,VALID,0,
2008-02-08, 00:22:00,VALID,916.832,VALID,0,VALID,100,VALID,-0.0169808,VALID,19.9419,VALID,152,VALID,0,
2008-02-08, 00:23:00,VALID,916.822,VALID,0,VALID,100,VALID,0,VALID,19.9324,VALID,152,VALID,0,
2008-02-08, 00:24:00,VALID,916.826,VALID,0,VALID,100,VALID,-0.0339617,VALID,19.9227,VALID,152,VALID,0,
2008-02-08, 00:25:00,VALID,916.827,VALID,0,VALID,100,VALID,-0.0169808,VALID,19.9354,VALID,152,VALID,0,
2008-02-08, 00:26:00,VALID,916.837,VALID,0,VALID,100,VALID,-0.0339617,VALID,19.9222,VALID,152,VALID,0,
2008-02-08, 00:27:00,VALID,916.832,VALID,0,VALID,100,VALID,-0.0339617,VALID,19.9194,VALID,152,VALID,0,
2008-02-08, 00:28:00,VALID,916.827,VALID,0,VALID,100,VALID,-0.101885,VALID,19.8885,VALID,152,VALID,0,
2008-02-08, 00:29:00,VALID,916.816,VALID,0,VALID,100,VALID,-0.118866,VALID,19.8328,VALID,151,VALID,0,
2008-02-08, 00:30:00,VALID,916.8,VALID,0,VALID,100,VALID,-0.0849042,VALID,19.8066,VALID,151,VALID,0,
2008-02-08, 00:31:00,VALID,916.778,VALID,0,VALID,100,VALID,-0.101885,VALID,19.7842,VALID,151,VALID,0,
2008-02-08, 00:32:00,VALID,916.776,VALID,0,VALID,100,VALID,-0.118866,VALID,19.7847,VALID,151,VALID,0,
2008-02-08, 00:33:00,VALID,916.766,VALID,0,VALID,100,VALID,-0.152827,VALID,19.7615,VALID,141,VALID,0,
2008-02-08, 00:34:00,VALID,916.761,VALID,0,VALID,100,VALID,-0.118866,VALID,19.726,VALID,139,VALID,0,
2008-02-08, 00:35:00,VALID,916.746,VALID,0,VALID,100,VALID,-0.118866,VALID,19.7225,VALID,138,VALID,0.015024,
2008-02-08, 00:36:00,VALID,916.747,VALID,0,VALID,100,VALID,-0.101885,VALID,19.7093,VALID,138,VALID,0.713118,
2008-02-08, 00:37:00,VALID,916.738,VALID,0,VALID,100,VALID,-0.118866,VALID,19.7098,VALID,138,VALID,0.687686,
2008-02-08, 00:38:00,VALID,916.728,VALID,0,VALID,100,VALID,-0.118866,VALID,19.6996,VALID,138,VALID,0.462984,
2008-02-08, 00:39:00,VALID,916.727,VALID,0,VALID,100,VALID,-0.135847,VALID,19.6963,VALID,129,VALID,0,
2008-02-08, 00:40:00,VALID,916.718,VALID,0,VALID,100,VALID,-0.0849042,VALID,19.6766,VALID,123,VALID,0,
2008-02-08, 00:41:00,VALID,916.709,VALID,0,VALID,100,VALID,-0.0169808,VALID,19.6561,VALID,123,VALID,0,
2008-02-08, 00:42:00,VALID,916.694,VALID,0,VALID,100,VALID,0.0169808,VALID,19.6397,VALID,123,VALID,0,
2008-02-08, 00:43:00,VALID,916.68,VALID,0,VALID,100,VALID,-0.0169808,VALID,19.604,VALID,123,VALID,0,
2008-02-08, 00:44:00,VALID,916.659,VALID,0,VALID,100,VALID,0.0169808,VALID,19.5715,VALID,123,VALID,0,
2008-02-08, 00:45:00,VALID,916.652,VALID,0,VALID,100,VALID,0,VALID,19.5556,VALID,123,VALID,0,
2008-02-08, 00:46:00,VALID,916.637,VALID,0,VALID,100,VALID,0.0169808,VALID,19.5715,VALID,31,VALID,0,
2008-02-08, 00:47:00,VALID,916.62,VALID,0,VALID,100,VALID,0.0169808,VALID,19.5945,VALID,360,VALID,0,
2008-02-08, 00:48:00,VALID,916.611,VALID,0,VALID,100,VALID,0.0339617,VALID,19.6167,VALID,360,VALID,0,
2008-02-08, 00:49:00,VALID,916.589,VALID,0,VALID,100,VALID,0,VALID,19.6654,VALID,360,VALID,0,
2008-02-08, 00:50:00,VALID,916.561,VALID,0,VALID,100,VALID,0,VALID,19.724,VALID,360,VALID,0,
2008-02-08, 00:51:00,VALID,916.524,VALID,0,VALID,100,VALID,0,VALID,19.7629,VALID,360,VALID,0,
2008-02-08, 00:52:00,VALID,916.501,VALID,0,VALID,100,VALID,0.0169808,VALID,19.6459,VALID,360,VALID,0,
2008-02-08, 00:53:00,VALID,916.485,VALID,0,VALID,100,VALID,-0.0169808,VALID,19.5848,VALID,360,VALID,0,
2008-02-08, 00:54:00,VALID,916.471,VALID,0,VALID,100,VALID,0.0169808,VALID,19.5553,VALID,360,VALID,0,
2008-02-08, 00:55:00,VALID,916.473,VALID,0,VALID,100,VALID,0,VALID,19.5324,VALID,360,VALID,0,
2008-02-08, 00:56:00,VALID,916.476,VALID,0,VALID,100,VALID,0,VALID,19.5164,VALID,360,VALID,0,
2008-02-08, 00:57:00,VALID,916.449,VALID,0,VALID,100,VALID,-0.0339617,VALID,19.5234,VALID,360,VALID,0,
2008-02-08, 00:58:00,VALID,916.43,VALID,0,VALID,100,VALID,-0.101885,VALID,19.5598,VALID,360,VALID,0,
2008-02-08, 00:59:00,VALID,916.404,VALID,0,VALID,100,VALID,-0.118866,VALID,19.6055,VALID,360,VALID,0,
2008-02-08, 01:00:00,VALID,916.375,VALID,0,VALID,100,VALID,-0.0509425,VALID,19.5568,VALID,360,VALID,0,
2008-02-08, 01:01:00,VALID,916.363,VALID,0,VALID,100,VALID,-0.101885,VALID,19.4919,VALID,360,VALID,0,
2008-02-08, 01:02:00,VALID,916.344,VALID,0,VALID,100,VALID,-0.101885,VALID,19.4887,VALID,360,VALID,0,
2008-02-08, 01:03:00,VALID,916.322,VALID,0,VALID,100,VALID,-0.101885,VALID,19.5209,VALID,360,VALID,0,
2008-02-08, 01:04:00,VALID,916.309,VALID,0,VALID,100,VALID,-0.118866,VALID,19.5925,VALID,360,VALID,0,
2008-02-08, 01:05:00,VALID,916.296,VALID,0,VALID,100,VALID,-0.101885,VALID,19.6771,VALID,13,VALID,0,
2008-02-08, 01:06:00,VALID,916.28,VALID,0,VALID,100,VALID,-0.0849042,VALID,19.7125,VALID,28,VALID,0,
2008-02-08, 01:07:00,VALID,916.261,VALID,0,VALID,100,VALID,-0.0849042,VALID,19.706,VALID,42,VALID,0.39375,
2008-02-08, 01:08:00,VALID,916.267,VALID,0,VALID,100,VALID,-0.152827,VALID,19.6701,VALID,45,VALID,0.659979,
2008-02-08, 01:09:00,VALID,916.268,VALID,0,VALID,100,VALID,-0.135847,VALID,19.6354,VALID,78,VALID,0.555051,
2008-02-08, 01:10:00,VALID,916.282,VALID,0,VALID,100,VALID,-0.135847,VALID,19.5927,VALID,78,VALID,0.0986555,
2008-02-08, 01:11:00,VALID,916.276,VALID,0,VALID,100,VALID,-0.101885,VALID,19.5246,VALID,78,VALID,0,
2008-02-08, 01:12:00,VALID,916.274,VALID,0,VALID,100,VALID,-0.0509425,VALID,19.466,VALID,78,VALID,0,
2008-02-08, 01:13:00,VALID,916.28,VALID,0,VALID,100,VALID,-0.0169808,VALID,19.4515,VALID,53,VALID,0,
2008-02-08, 01:14:00,VALID,916.261,VALID,0,VALID,100,VALID,-0.0509425,VALID,19.4557,VALID,29,VALID,0,
2008-02-08, 01:15:00,VALID,916.238,VALID,0,VALID,100,VALID,-0.0849042,VALID,19.4819,VALID,43,VALID,0.64577,
2008-02-08, 01:16:00,VALID,916.225,VALID,0,VALID,100,VALID,-0.0509425,VALID,19.4839,VALID,53,VALID,0.73331,
2008-02-08, 01:17:00,VALID,916.211,VALID,0,VALID,100,VALID,-0.0169808,VALID,19.4814,VALID,79,VALID,0.878289,
2008-02-08, 01:18:00,VALID,916.198,VALID,0,VALID,100,VALID,-0.0169808,VALID,19.4907,VALID,81,VALID,0.802202,
2008-02-08, 01:19:00,VALID,916.215,VALID,0,VALID,100,VALID,-0.0169808,VALID,19.5039,VALID,84,VALID,0.427871,
2008-02-08, 01:20:00,VALID,916.208,VALID,0,VALID,100,VALID,-0.0339617,VALID,19.4874,VALID,85,VALID,0,
2008-02-08, 01:21:00,VALID,916.205,VALID,0,VALID,100,VALID,0,VALID,19.4772,VALID,85,VALID,0,
2008-02-08, 01:22:00,VALID,916.188,VALID,0,VALID,100,VALID,-0.0169808,VALID,19.4779,VALID,78,VALID,0,
2008-02-08, 01:23:00,VALID,916.205,VALID,0,VALID,100,VALID,-0.0339617,VALID,19.4522,VALID,73,VALID,0,
2008-02-08, 01:24:00,VALID,916.193,VALID,0,VALID,100,VALID,-0.0679233,VALID,19.4258,VALID,73,VALID,0,
2008-02-08, 01:25:00,VALID,916.194,VALID,0,VALID,100,VALID,-0.0169808,VALID,19.4193,VALID,73,VALID,0,
2008-02-08, 01:26:00,VALID,916.191,VALID,0,VALID,100,VALID,-0.0339617,VALID,19.4425,VALID,76,VALID,0,
2008-02-08, 01:27:00,VALID,916.188,VALID,0,VALID,100,VALID,0,VALID,19.4652,VALID,80,VALID,0,
2008-02-08, 01:28:00,VALID,916.171,VALID,0,VALID,100,VALID,0.0679233,VALID,19.463,VALID,80,VALID,0,
2008-02-08, 01:29:00,VALID,916.146,VALID,0,VALID,100,VALID,0.0849042,VALID,19.447,VALID,80,VALID,0,
2008-02-08, 01:30:00,VALID,916.114,VALID,0,VALID,100,VALID,0.0849042,VALID,19.4079,VALID,80,VALID,0,
2008-02-08, 01:31:00,VALID,916.108,VALID,0,VALID,100,VALID,0.0849042,VALID,19.4111,VALID,80,VALID,0,
2008-02-08, 01:32:00,VALID,916.103,VALID,0,VALID,100,VALID,0.0509425,VALID,19.4178,VALID,80,VALID,0,
2008-02-08, 01:33:00,VALID,916.1,VALID,0,VALID,100,VALID,0.0849042,VALID,19.4173,VALID,80,VALID,0,
2008-02-08, 01:34:00,VALID,916.117,VALID,0,VALID,100,VALID,0.0679233,VALID,19.4336,VALID,80,VALID,0,
2008-02-08, 01:35:00,VALID,916.131,VALID,0,VALID,100,VALID,0.0849042,VALID,19.447,VALID,80,VALID,0,
2008-02-08, 01:36:00,VALID,916.134,VALID,0,VALID,100,VALID,0.101885,VALID,19.4465,VALID,80,VALID,0,
2008-02-08, 01:37:00,VALID,916.142,VALID,0,VALID,100,VALID,0.101885,VALID,19.4498,VALID,80,VALID,0,
2008-02-08, 01:38:00,VALID,916.149,VALID,0,VALID,100,VALID,0.135847,VALID,19.4568,VALID,80,VALID,0,
2008-02-08, 01:39:00,VALID,916.165,VALID,0,VALID,100,VALID,0.101885,VALID,19.47,VALID,80,VALID,0.00104167,
2008-02-08, 01:40:00,VALID,916.169,VALID,0,VALID,100,VALID,0.118866,VALID,19.4922,VALID,80,VALID,0.514535,
2008-02-08, 01:41:00,VALID,916.178,VALID,0,VALID,100,VALID,0.101885,VALID,19.4887,VALID,80,VALID,0.179116,
2008-02-08, 01:42:00,VALID,916.159,VALID,0,VALID,100,VALID,0.0679233,VALID,19.4665,VALID,80,VALID,0,
2008-02-08, 01:43:00,VALID,916.145,VALID,0,VALID,100,VALID,0,VALID,19.4281,VALID,80,VALID,0,
2008-02-08, 01:44:00,VALID,916.143,VALID,0,VALID,100,VALID,0,VALID,19.432,VALID,80,VALID,0,
2008-02-08, 01:45:00,VALID,916.152,VALID,0,VALID,100,VALID,0,VALID,19.435,VALID,80,VALID,0,
2008-02-08, 01:46:00,VALID,916.145,VALID,0,VALID,100,VALID,-0.0169808,VALID,19.4448,VALID,80,VALID,0,
2008-02-08, 01:47:00,VALID,916.152,VALID,0,VALID,100,VALID,-0.0169808,VALID,19.4513,VALID,52,VALID,0,
2008-02-08, 01:48:00,VALID,916.164,VALID,0,VALID,100,VALID,-0.0169808,VALID,19.4607,VALID,321,VALID,0,
2008-02-08, 01:49:00,VALID,916.17,VALID,0,VALID,100,VALID,-0.0339617,VALID,19.4575,VALID,314,VALID,0,
2008-02-08, 01:50:00,VALID,916.183,VALID,0,VALID,100,VALID,0,VALID,19.4772,VALID,307,VALID,0.166606,
2008-02-08, 01:51:00,VALID,916.179,VALID,0,VALID,100,VALID,0,VALID,19.4839,VALID,262,VALID,0.506138,
2008-02-08, 01:52:00,VALID,916.176,VALID,0,VALID,100,VALID,-0.0169808,VALID,19.4904,VALID,281,VALID,0.284884,
2008-02-08, 01:53:00,VALID,916.149,VALID,0,VALID,100,VALID,-0.0169808,VALID,19.4837,VALID,295,VALID,0.00093006,
2008-02-08, 01:54:00,VALID,916.131,VALID,0,VALID,100,VALID,-0.0339617,VALID,19.474,VALID,284,VALID,0,
2008-02-08, 01:55:00,VALID,916.098,VALID,0,VALID,100,VALID,-0.0339617,VALID,19.4647,VALID,263,VALID,0,
2008-02-08, 01:56:00,VALID,916.094,VALID,0,VALID,100,VALID,-0.0169808,VALID,19.4513,VALID,263,VALID,0,
2008-02-08, 01:57:00,VALID,916.071,VALID,0,VALID,100,VALID,-0.0169808,VALID,19.4453,VALID,263,VALID,0,
2008-02-08, 01:58:00,VALID,916.069,VALID,0,VALID,100,VALID,-0.0339617,VALID,19.4225,VALID,263,VALID,0,
2008-02-08, 01:59:00,VALID,916.064,VALID,0,VALID,100,VALID,-0.0339617,VALID,19.4026,VALID,263,VALID,0,
2008-02-08, 02:00:00,VALID,916.071,VALID,0,VALID,100,VALID,-0.0169808,VALID,19.3899,VALID,263,VALID,0,
2008-02-08, 02:01:00,VALID,916.069,VALID,0,VALID,100,VALID,-0.0169808,VALID,19.3639,VALID,263,VALID,0,
2008-02-08, 02:02:00,VALID,916.069,VALID,0,VALID,100,VALID,0,VALID,19.328,VALID,263,VALID,0,
2008-02-08, 02:03:00,VALID,916.07,VALID,0,VALID,100,VALID,-0.0169808,VALID,19.3185,VALID,227,VALID,0,
2008-02-08, 02:04:00,VALID,916.072,VALID,0,VALID,100,VALID,-0.0169808,VALID,19.309,VALID,240,VALID,0,
2008-02-08, 02:05:00,VALID,916.069,VALID,0,VALID,100,VALID,-0.0509425,VALID,19.2988,VALID,240,VALID,0,
2008-02-08, 02:06:00,VALID,916.072,VALID,0,VALID,100,VALID,-0.0169808,VALID,19.2963,VALID,240,VALID,0,
2008-02-08, 02:07:00,VALID,916.063,VALID,0,VALID,100,VALID,-0.0169808,VALID,19.2863,VALID,236,VALID,0.269737,
2008-02-08, 02:08:00,VALID,916.064,VALID,0,VALID,100,VALID,-0.0169808,VALID,19.2471,VALID,217,VALID,0.400746,
2008-02-08, 02:09:00,VALID,916.063,VALID,0,VALID,100,VALID,-0.0169808,VALID,19.1987,VALID,198,VALID,0,
2008-02-08, 02:10:00,VALID,916.059,VALID,0,VALID,100,VALID,-0.0339617,VALID,19.1431,VALID,188,VALID,0.876817,
2008-02-08, 02:11:00,VALID,916.058,VALID,0,VALID,100,VALID,-0.0679233,VALID,19.1016,VALID,177,VALID,0.818714,
2008-02-08, 02:12:00,VALID,916.043,VALID,0,VALID,100,VALID,0,VALID,19.0657,VALID,183,VALID,0.93418,
2008-02-08, 02:13:00,VALID,916.04,VALID,0,VALID,100,VALID,-0.0169808,VALID,19.0525,VALID,195,VALID,0.079723,
2008-02-08, 02:14:00,VALID,916.03,VALID,0,VALID,100,VALID,0,VALID,19.036,VALID,195,VALID,0,
2008-02-08, 02:15:00,VALID,916.02,VALID,0,VALID,100,VALID,-0.0339617,VALID,19.0562,VALID,195,VALID,0,
2008-02-08, 02:16:00,VALID,916.007,VALID,0,VALID,100,VALID,0,VALID,19.0263,VALID,195,VALID,0,
2008-02-08, 02:17:00,VALID,915.978,VALID,0,VALID,100,VALID,0,VALID,19.039,VALID,148,VALID,0,
2008-02-08, 02:18:00,VALID,915.97,VALID,0,VALID,100,VALID,0.0169808,VALID,19.0555,VALID,138,VALID,0,
2008-02-08, 02:19:00,VALID,915.941,VALID,0,VALID,100,VALID,0.0339617,VALID,19.0488,VALID,138,VALID,0,
2008-02-08, 02:20:00,VALID,915.923,VALID,0,VALID,100,VALID,0.0339617,VALID,19.0358,VALID,138,VALID,0,
2008-02-08, 02:21:00,VALID,915.895,VALID,0,VALID,100,VALID,-0.0169808,VALID,19.0555,VALID,143,VALID,0.257241,
2008-02-08, 02:22:00,VALID,915.882,VALID,0,VALID,100,VALID,0,VALID,19.0944,VALID,148,VALID,0.353659,
2008-02-08, 02:23:00,VALID,915.862,VALID,0,VALID,100,VALID,0,VALID,19.1269,VALID,172,VALID,0.142383,
2008-02-08, 02:24:00,VALID,915.844,VALID,0,VALID,100,VALID,0.0169808,VALID,19.1561,VALID,180,VALID,0,
2008-02-08, 02:25:00,VALID,915.857,VALID,0,VALID,100,VALID,0.0169808,VALID,19.1658,VALID,180,VALID,0,
2008-02-08, 02:26:00,VALID,915.858,VALID,0,VALID,100,VALID,0,VALID,19.1299,VALID,180,VALID,0,
2008-02-08, 02:27:00,VALID,915.856,VALID,0,VALID,100,VALID,0,VALID,19.0907,VALID,178,VALID,0,
2008-02-08, 02:28:00,VALID,915.839,VALID,0,VALID,100,VALID,0.0169808,VALID,19.0817,VALID,178,VALID,0,
2008-02-08, 02:29:00,VALID,915.821,VALID,0,VALID,100,VALID,0.0339617,VALID,19.075,VALID,178,VALID,0,
2008-02-08, 02:30:00,VALID,915.815,VALID,0,VALID,100,VALID,0.0339617,VALID,19.0715,VALID,178,VALID,0,
2008-02-08, 02:31:00,VALID,915.807,VALID,0,VALID,100,VALID,0.0169808,VALID,19.0715,VALID,169,VALID,0,
2008-02-08, 02:32:00,VALID,915.782,VALID,0,VALID,100,VALID,0.0169808,VALID,19.0555,VALID,144,VALID,0.167111,
2008-02-08, 02:33:00,VALID,915.771,VALID,0,VALID,100,VALID,0,VALID,19.0328,VALID,140,VALID,0.696114,
2008-02-08, 02:34:00,VALID,915.76,VALID,0,VALID,100,VALID,0.0509425,VALID,19.0064,VALID,134,VALID,0.630996,
2008-02-08, 02:35:00,VALID,915.753,VALID,0,VALID,100,VALID,0,VALID,19.0034,VALID,145,VALID,0.849746,
2008-02-08, 02:36:00,VALID,915.728,VALID,0,VALID,100,VALID,0.0339617,VALID,18.9871,VALID,140,VALID,0.79668,
2008-02-08, 02:37:00,VALID,915.737,VALID,0,VALID,100,VALID,0.0169808,VALID,18.9841,VALID,165,VALID,0.50362,
2008-02-08, 02:38:00,VALID,915.727,VALID,0,VALID,100,VALID,0,VALID,18.9672,VALID,158,VALID,1.01722,
2008-02-08, 02:39:00,VALID,915.723,VALID,0,VALID,100,VALID,0.0169808,VALID,18.9906,VALID,162,VALID,0.750178,
2008-02-08, 02:40:00,VALID,915.716,VALID,0,VALID,100,VALID,0.0339617,VALID,18.9804,VALID,166,VALID,0.254092,
2008-02-08, 02:41:00,VALID,915.726,VALID,0,VALID,100,VALID,0,VALID,18.9901,VALID,165,VALID,0,
2008-02-08, 02:42:00,VALID,915.737,VALID,0,VALID,100,VALID,0.0169808,VALID,19.0138,VALID,165,VALID,0,
2008-02-08, 02:43:00,VALID,915.723,VALID,0,VALID,100,VALID,-0.118866,VALID,19.0245,VALID,165,VALID,0,
2008-02-08, 02:44:00,VALID,915.732,VALID,0,VALID,100,VALID,-0.101885,VALID,19.0375,VALID,165,VALID,0,
2008-02-08, 02:45:00,VALID,915.736,VALID,0,VALID,100,VALID,-0.0679233,VALID,19.0435,VALID,165,VALID,0,
2008-02-08, 02:46:00,VALID,915.717,VALID,0,VALID,100,VALID,-0.0849042,VALID,19.0375,VALID,165,VALID,0,
2008-02-08, 02:47:00,VALID,915.702,VALID,0,VALID,100,VALID,-0.0849042,VALID,19.0342,VALID,165,VALID,0,
2008-02-08, 02:48:00,VALID,915.683,VALID,0,VALID,100,VALID,-0.101885,VALID,19.0245,VALID,165,VALID,0,
2008-02-08, 02:49:00,VALID,915.677,VALID,0,VALID,100,VALID,-0.101885,VALID,18.9953,VALID,165,VALID,0.32867,
2008-02-08, 02:50:00,VALID,915.676,VALID,0,VALID,100,VALID,-0.0509425,VALID,18.9684,VALID,165,VALID,0.292783,
2008-02-08, 02:51:00,VALID,915.656,VALID,0,VALID,100,VALID,-0.101885,VALID,18.9466,VALID,165,VALID,0,
2008-02-08, 02:52:00,VALID,915.659,VALID,0,VALID,100,VALID,-0.0849042,VALID,18.917,VALID,165,VALID,0,
2008-02-08, 02:53:00,VALID,915.644,VALID,0,VALID,100,VALID,-0.0849042,VALID,18.895,VALID,165,VALID,0,
2008-02-08, 02:54:00,VALID,915.637,VALID,0,VALID,100,VALID,-0.118866,VALID,18.8723,VALID,165,VALID,0,
2008-02-08, 02:55:00,VALID,915.629,VALID,0,VALID,100,VALID,-0.0849042,VALID,18.8361,VALID,165,VALID,0,
2008-02-08, 02:56:00,VALID,915.611,VALID,0,VALID,100,VALID,-0.0849042,VALID,18.8137,VALID,165,VALID,0,
2008-02-08, 02:57:00,VALID,915.595,VALID,0,VALID,100,VALID,-0.0849042,VALID,18.7905,VALID,165,VALID,0,
2008-02-08, 02:58:00,VALID,915.576,VALID,0,VALID,100,VALID,0,VALID,18.7763,VALID,165,VALID,0,
2008-02-08, 02:59:00,VALID,915.565,VALID,0,VALID,100,VALID,0.0169808,VALID,18.8025,VALID,165,VALID,0,
2008-02-08, 03:00:00,VALID,915.559,VALID,0,VALID,100,VALID,0.0169808,VALID,18.8347,VALID,165,VALID,0,
2008-02-08, 03:01:00,VALID,915.549,VALID,0,VALID,100,VALID,0,VALID,18.8771,VALID,165,VALID,0,
2008-02-08, 03:02:00,VALID,915.538,VALID,0,VALID,100,VALID,0.0169808,VALID,18.9033,VALID,168,VALID,0.472202,
2008-02-08, 03:03:00,VALID,915.518,VALID,0,VALID,100,VALID,0.0169808,VALID,18.9325,VALID,174,VALID,0.617374,
2008-02-08, 03:04:00,VALID,915.515,VALID,0,VALID,100,VALID,0.0169808,VALID,18.9485,VALID,174,VALID,0.436198,
2008-02-08, 03:05:00,VALID,915.496,VALID,0,VALID,100,VALID,0.0339617,VALID,18.942,VALID,174,VALID,0.283794,
2008-02-08, 03:06:00,VALID,915.497,VALID,0,VALID,100,VALID,0,VALID,18.9325,VALID,174,VALID,0,
2008-02-08, 03:07:00,VALID,915.489,VALID,0,VALID,100,VALID,-0.0169808,VALID,18.8996,VALID,174,VALID,0,
2008-02-08, 03:08:00,VALID,915.495,VALID,0,VALID,100,VALID,0.0169808,VALID,18.8896,VALID,174,VALID,0,
2008-02-08, 03:09:00,VALID,915.503,VALID,0,VALID,100,VALID,0,VALID,18.8609,VALID,174,VALID,0,
2008-02-08, 03:10:00,VALID,915.523,VALID,0,VALID,100,VALID,0.0169808,VALID,18.7993,VALID,174,VALID,0,
2008-02-08, 03:11:00,VALID,915.542,VALID,0,VALID,100,VALID,0.0169808,VALID,18.7506,VALID,174,VALID,0,
2008-02-08, 03:12:00,VALID,915.543,VALID,0,VALID,100,VALID,0,VALID,18.7279,VALID,174,VALID,0,
2008-02-08, 03:13:00,VALID,915.565,VALID,0,VALID,100,VALID,0.0169808,VALID,18.7182,VALID,168,VALID,0,
2008-02-08, 03:14:00,VALID,915.563,VALID,0,VALID,100,VALID,0.0169808,VALID,18.6887,VALID,145,VALID,0,
2008-02-08, 03:15:00,VALID,915.571,VALID,0,VALID,100,VALID,0.0169808,VALID,18.6271,VALID,134,VALID,0,
2008-02-08, 03:16:00,VALID,915.566,VALID,0,VALID,100,VALID,0.0169808,VALID,18.569,VALID,96,VALID,0.574132,
2008-02-08, 03:17:00,VALID,915.558,VALID,0,VALID,100,VALID,0.0169808,VALID,18.5562,VALID,103,VALID,1.02753,
2008-02-08, 03:18:00,VALID,915.553,VALID,0,VALID,100,VALID,0.0169808,VALID,18.5558,VALID,104,VALID,0.57706,
2008-02-08, 03:19:00,VALID,915.542,VALID,0,VALID,100,VALID,0.0339617,VALID,18.5361,VALID,107,VALID,0.700994,
2008-02-08, 03:20:00,VALID,915.525,VALID,0,VALID,100,VALID,0.0169808,VALID,18.5168,VALID,107,VALID,0.521532,
2008-02-08, 03:21:00,VALID,915.513,VALID,0,VALID,100,VALID,0.0169808,VALID,18.5203,VALID,129,VALID,0.580611,
2008-02-08, 03:22:00,VALID,915.509,VALID,0,VALID,100,VALID,0,VALID,18.5333,VALID,127,VALID,1.03906,
2008-02-08, 03:23:00,VALID,915.513,VALID,0,VALID,100,VALID,0,VALID,18.5495,VALID,120,VALID,0.823946,
2008-02-08, 03:24:00,VALID,915.521,VALID,0,VALID,100,VALID,0,VALID,18.5301,VALID,106,VALID,0.866797,
2008-02-08, 03:25:00,VALID,915.543,VALID,0,VALID,100,VALID,0.0169808,VALID,18.5104,VALID,100,VALID,0.837754,
2008-02-08, 03:26:00,VALID,915.55,VALID,0,VALID,100,VALID,0,VALID,18.4782,VALID,81,VALID,0.764898,
2008-02-08, 03:27:00,VALID,915.579,VALID,0,VALID,100,VALID,0,VALID,18.4555,VALID,101,VALID,0.709666,
2008-02-08, 03:28:00,VALID,915.608,VALID,0,VALID,100,VALID,0,VALID,18.4684,VALID,127,VALID,0.473899,
2008-02-08, 03:29:00,VALID,915.622,VALID,0,VALID,100,VALID,0,VALID,18.465,VALID,118,VALID,0.442073,
2008-02-08, 03:30:00,VALID,915.609,VALID,0,VALID,100,VALID,0.0339617,VALID,18.465,VALID,121,VALID,0.328497,
2008-02-08, 03:31:00,VALID,915.61,VALID,0,VALID,100,VALID,0.0169808,VALID,18.4909,VALID,134,VALID,0.99184,
2008-02-08, 03:32:00,VALID,915.606,VALID,0,VALID,100,VALID,0,VALID,18.5039,VALID,148,VALID,0.594893,
2008-02-08, 03:33:00,VALID,915.591,VALID,0,VALID,100,VALID,0.0169808,VALID,18.5236,VALID,162,VALID,0.966797,
2008-02-08, 03:34:00,VALID,915.572,VALID,0,VALID,100,VALID,0,VALID,18.543,VALID,149,VALID,0.917969,
2008-02-08, 03:35:00,VALID,915.556,VALID,0,VALID,100,VALID,0.0169808,VALID,18.5623,VALID,135,VALID,0.632086,
2008-02-08, 03:36:00,VALID,915.552,VALID,0,VALID,100,VALID,0.0509425,VALID,18.549,VALID,123,VALID,0.954013,
2008-02-08, 03:37:00,VALID,915.559,VALID,0,VALID,100,VALID,0.0169808,VALID,18.5358,VALID,143,VALID,0.789876,
2008-02-08, 03:38:00,VALID,915.553,VALID,0,VALID,100,VALID,0.0169808,VALID,18.5463,VALID,153,VALID,0.385975,
2008-02-08, 03:39:00,VALID,915.55,VALID,0,VALID,100,VALID,0.0509425,VALID,18.5428,VALID,137,VALID,0.998242,
2008-02-08, 03:40:00,VALID,915.553,VALID,0,VALID,100,VALID,0.0169808,VALID,18.546,VALID,146,VALID,0.911086,
2008-02-08, 03:41:00,VALID,915.548,VALID,0,VALID,100,VALID,0,VALID,18.5558,VALID,149,VALID,1.35465,
2008-02-08, 03:42:00,VALID,915.56,VALID,0,VALID,100,VALID,-0.0339617,VALID,18.5662,VALID,149,VALID,0.806784,
2008-02-08, 03:43:00,VALID,915.559,VALID,0,VALID,100,VALID,-0.0679233,VALID,18.5602,VALID,146,VALID,1.11192,
2008-02-08, 03:44:00,VALID,915.549,VALID,0,VALID,100,VALID,-0.0679233,VALID,18.5664,VALID,156,VALID,0.822088,
2008-02-08, 03:45:00,VALID,915.543,VALID,0,VALID,100,VALID,-0.0509425,VALID,18.5597,VALID,154,VALID,0.908854,
2008-02-08, 03:46:00,VALID,915.533,VALID,0,VALID,100,VALID,-0.0509425,VALID,18.5634,VALID,154,VALID,0.659628,
2008-02-08, 03:47:00,VALID,915.539,VALID,0,VALID,100,VALID,-0.0679233,VALID,18.5732,VALID,163,VALID,0.764737,
2008-02-08, 03:48:00,VALID,915.528,VALID,0,VALID,100,VALID,-0.101885,VALID,18.5859,VALID,150,VALID,0.968192,